Weather in Nafplio

Greece     37°34′14″N   22°48′39″E
temp.,
°C
wind,
m/s
gust,
m/s
humid.,
%
clouds,
%
prec.,
mm/h
press.,
hPa
HPBL,
m
28 february, sun
sun2823:00+12wnw22670 0.0 102055
02:00+12wnw22650 0.0 102056
05:00+12wnw22570 0.0 102057
08:00+12nw22600 0.0 102187
11:00+16n35590 0.0 1023930
14:00+16nne566110 0.3 10241154
17:00+14n466456 0.4 10251065
20:00+12nnw457074 0.6 1026491
1 march, mon
mon123:00+11nw336688 0.0 1027338
02:00+10nw226885 0.0 1027206
05:00+9nw226952 0.0 1026159
08:00+9wnw126931 0.0 1026150
11:00+13ne11552 0.0 1026737
14:00+14ese22554 0.0 1025819
17:00+13se336359 0.0 1024340
20:00+12e126770 0.0 1026267
2 march, tue
tue223:00+11ne1270100 0.2 1028186
02:00+9nnw346296 0.7 1029430
05:00+8nnw47732 0.0 1029351
08:00+8nnw476934 0.1 1031770
11:00+11nne575520 0.1 10321596
14:00+12n575139 0.1 10311676
17:00+12nne575320 0.0 10301425
20:00+8wnw126610 0.0 1031310
3 march, wed
wed323:00+7wnw23710 0.0 103299
02:00+6wnw22700 0.0 103188
05:00+6wnw23670 0.0 103089
08:00+8wnw23590 0.0 1030112
11:00+13n24410 0.0 1030755
14:00+16n45350 0.0 10291234
17:00+15n35440 0.0 10281008
20:00+11nw23500 0.0 1029100
4 march, thu
thu423:00+10wnw23490 0.0 102969
02:00+9wnw22410 0.0 102872
05:00+9wnw23400 0.0 102770
08:00+9wnw23430 0.0 102687
11:00+15n22330 0.0 1026522
14:00+17ese11320 0.0 1024675
17:00+15se33410 0.0 1023296
20:00+11ese126417 0.0 1023197